Midland, MI

11:19 AM EDT on April 24, 2017 (GMT -0400)
Barstow

Weather History for KIKW - March, 2014

Change the Weather History Date:

Friday, March 14, 2014

  Actual Average (KMBS) Record (KMBS)
Temperature  
Mean Temperature 38 °F -  
Max Temperature 51 °F 36 °F 78 °F (2012)
Min Temperature 25 °F 21 °F 8 °F (2005)
Degree Days  
Heating Degree Days 27    
Moisture  
Dew Point 25 °F    
Average Humidity 61    
Maximum Humidity 80    
Minimum Humidity 36    
Precipitation  
Precipitation 0.00 in - - ()
Sea Level Pressure  
Sea Level Pressure 29.60 in    
Wind  
Wind Speed 10 mph (SW)    
Max Wind Speed 29 mph    
Max Gust Speed 38 mph    
Visibility 10 miles    
Events Rain    
Averages and records for this station are not official NWS values.
T = Trace of Precipitation, MM = Missing Value Source: NWS Daily Summary

Daily Weather History Graph

Daily Weather History Graph

Search for Another Location

Airport or City:

Trip Planner

Search our weather history database for the weather conditions in past years. The results will help you decide how hot, cold, wet, or windy it might be!

Date:

Astronomy

Mar. 14, 2014 Rise Set
Actual Time 7:50 AM EDT 7:42 PM EDT
Civil Twilight 7:22 AM EDT 8:10 PM EDT
Nautical Twilight 6:49 AM EDT 8:44 PM EDT
Astronomical Twilight 6:15 AM EDT 9:17 PM EDT
Moon 6:01 PM EDT (3/14) 6:33 AM EDT (3/14)
Length of Visible Light 12h 48m
Length of Day
11h 51m
Waxing Gibbous, 96% of the Moon is Illuminated
Mar 14
Waxing Gibbous
Mar 16
Full
Mar 23
Last Quarter
Mar 30
New
Apr 7
First Quarter

Hourly Weather History & Observations

Time (EDT) Temp. Windchill Dew Point Humidity Pressure Visibility Wind Dir Wind Speed Gust Speed Precip Events Conditions
12:14 AM 26.6 °F 16.8 °F 16.9 °F 67% 29.87 in 10.0 mi SSW 10.4 mph 18.4 mph N/A   Overcast
12:34 AM 26.6 °F 17.5 °F 16.9 °F 67% 29.86 in 10.0 mi SSW 9.2 mph - N/A   Overcast
12:54 AM 27.0 °F 18.7 °F 17.2 °F 67% 29.85 in 10.0 mi SSW 8.1 mph - N/A   Overcast
1:14 AM 27.0 °F 18.7 °F 17.4 °F 67% 29.84 in 10.0 mi SSW 8.1 mph - N/A   Overcast
1:34 AM 27.1 °F 19.7 °F 17.6 °F 67% 29.84 in 10.0 mi SSW 6.9 mph - N/A   Overcast
1:54 AM 27.5 °F 20.2 °F 18.5 °F 69% 29.83 in 10.0 mi SSW 6.9 mph - N/A   Overcast
2:14 AM 27.5 °F 19.3 °F 18.5 °F 69% 29.82 in 10.0 mi SSW 8.1 mph - N/A   Mostly Cloudy
2:34 AM 27.3 °F 19.1 °F 18.5 °F 69% 29.81 in 10.0 mi SSW 8.1 mph - N/A   Mostly Cloudy
2:54 AM 26.6 °F 20.0 °F 18.5 °F 71% 29.81 in 10.0 mi SSW 5.8 mph - N/A   Scattered Clouds
3:14 AM 26.4 °F 18.9 °F 18.3 °F 71% 29.79 in 10.0 mi South 6.9 mph - N/A   Clear
3:34 AM 26.1 °F 17.6 °F 18.3 °F 73% 29.78 in 10.0 mi South 8.1 mph - N/A   Clear
3:54 AM 25.7 °F 18.0 °F 18.5 °F 74% 29.76 in 10.0 mi SSW 6.9 mph - N/A   Clear
4:14 AM 25.7 °F 19.0 °F 18.5 °F 74% 29.75 in 10.0 mi SSW 5.8 mph - N/A   Clear
4:34 AM 25.7 °F 19.0 °F 18.7 °F 75% 29.74 in 10.0 mi SSW 5.8 mph - N/A   Clear
4:54 AM 25.7 °F 19.0 °F 19.0 °F 76% 29.72 in 10.0 mi South 5.8 mph - N/A   Clear
5:14 AM 25.9 °F 21.7 °F 19.0 °F 75% 29.71 in 10.0 mi South 3.5 mph - N/A   Clear
5:34 AM 26.4 °F 20.9 °F 19.4 °F 75% 29.70 in 10.0 mi South 4.6 mph - N/A   Clear
5:54 AM 26.2 °F 22.1 °F 19.4 °F 75% 29.68 in 10.0 mi South 3.5 mph - N/A   Clear
6:14 AM 25.9 °F 20.3 °F 19.4 °F 76% 29.67 in 10.0 mi South 4.6 mph - N/A   Clear
6:34 AM 25.5 °F 21.3 °F 19.4 °F 78% 29.66 in 10.0 mi South 3.5 mph - N/A   Clear
6:54 AM 25.7 °F - 19.9 °F 79% 29.65 in 10.0 mi Calm Calm - N/A   Clear
7:14 AM 26.2 °F - 20.3 °F 78% 29.64 in 10.0 mi Calm Calm - N/A   Clear
7:34 AM 26.4 °F - 21.0 °F 80% 29.63 in 10.0 mi Calm Calm - N/A   Clear
7:54 AM 27.7 °F - 22.1 °F 80% 29.62 in 10.0 mi Calm Calm - N/A   Clear
8:14 AM 30.2 °F 23.4 °F 23.9 °F 77% 29.60 in 10.0 mi South 6.9 mph - N/A   Clear
8:33 AM 32.0 °F 24.8 °F 25.2 °F 76% 29.59 in 10.0 mi South 8.1 mph - N/A   Clear
8:54 AM 34.7 °F 26.4 °F 26.2 °F 71% 29.58 in 10.0 mi South 11.5 mph - N/A   Clear
9:14 AM 36.9 °F 27.8 °F 26.8 °F 67% 29.57 in 10.0 mi SSW 15.0 mph 19.6 mph N/A   Clear
9:34 AM 38.8 °F 30.4 °F 27.3 °F 63% 29.56 in 10.0 mi SSW 15.0 mph 21.9 mph N/A   Clear
9:54 AM 40.1 °F 32.4 °F 27.7 °F 61% 29.55 in 10.0 mi SSW 13.8 mph 21.9 mph N/A   Clear
10:14 AM 40.6 °F 32.7 °F 27.3 °F 59% 29.55 in 10.0 mi SSW 15.0 mph 24.2 mph N/A   Clear
10:34 AM 41.9 °F 34.6 °F 27.5 °F 57% 29.54 in 10.0 mi SSW 13.8 mph 24.2 mph N/A   Clear
10:54 AM 42.6 °F 35.6 °F 27.5 °F 55% 29.54 in 10.0 mi SSW 13.8 mph 21.9 mph N/A   Scattered Clouds
11:14 AM 43.7 °F 35.7 °F 27.3 °F 53% 29.53 in 10.0 mi SW 18.4 mph 24.2 mph N/A   Scattered Clouds
11:34 AM 44.2 °F 37.3 °F 27.3 °F 51% 29.52 in 10.0 mi SW 15.0 mph 24.2 mph N/A   Scattered Clouds
11:54 AM 44.8 °F 38.7 °F 27.5 °F 51% 29.51 in 10.0 mi SSW 12.7 mph 21.9 mph N/A   Clear
12:14 PM 45.5 °F 38.6 °F 27.5 °F 49% 29.50 in 10.0 mi SSW 16.1 mph 21.9 mph N/A   Clear
12:34 PM 46.2 °F 39.5 °F 27.5 °F 48% 29.49 in 10.0 mi SW 16.1 mph 24.2 mph N/A   Clear
12:54 PM 47.3 °F - 27.3 °F 46% 29.50 in 10.0 mi SW 15.0 mph 25.3 mph N/A   Clear
1:14 PM 48.0 °F - 27.3 °F 45% 29.48 in 10.0 mi SSW 13.8 mph 25.3 mph N/A   Clear
1:34 PM 49.1 °F - 27.1 °F 43% 29.47 in 10.0 mi SSW 16.1 mph 21.9 mph N/A   Clear
1:54 PM 49.5 °F - 26.8 °F 41% 29.47 in 10.0 mi SW 16.1 mph 24.2 mph N/A   Clear
2:13 PM 50.0 °F - 26.6 °F 40% 29.46 in 10.0 mi SW 15.0 mph 21.9 mph N/A   Clear
2:34 PM 50.9 °F - 25.5 °F 37% 29.44 in 10.0 mi WSW 25.3 mph 28.8 mph N/A   Clear
2:54 PM 51.1 °F - 25.0 °F 36% 29.43 in 10.0 mi SW 18.4 mph 32.2 mph N/A   Clear
3:14 PM 50.9 °F - 25.7 °F 38% 29.43 in 10.0 mi WSW 19.6 mph 32.2 mph N/A   Clear
3:34 PM 50.9 °F - 25.9 °F 38% 29.43 in 10.0 mi WSW 25.3 mph 38.0 mph N/A   Clear
3:54 PM 50.0 °F - 26.2 °F 40% 29.43 in 10.0 mi SW 28.8 mph 36.8 mph N/A   Clear
4:13 PM 49.3 °F - 26.8 °F 42% 29.45 in 10.0 mi WSW 17.3 mph 28.8 mph N/A   Scattered Clouds
4:34 PM 47.8 °F - 27.1 °F 45% 29.46 in 10.0 mi WSW 16.1 mph 28.8 mph N/A   Mostly Cloudy
4:54 PM 45.7 °F 38.3 °F 29.1 °F 52% 29.47 in 10.0 mi WSW 18.4 mph 29.9 mph N/A Rain Light Rain
5:14 PM 42.8 °F 36.6 °F 32.0 °F 66% 29.46 in 10.0 mi WSW 11.5 mph 23.0 mph N/A Rain Light Rain
5:34 PM 43.7 °F 38.1 °F 32.0 °F 63% 29.46 in 10.0 mi SW 10.4 mph 18.4 mph N/A   Scattered Clouds
5:54 PM 44.2 °F 36.4 °F 31.6 °F 61% 29.47 in 10.0 mi SW 18.4 mph 28.8 mph N/A   Scattered Clouds
6:14 PM 44.2 °F 37.3 °F 31.6 °F 61% 29.48 in 10.0 mi SW 15.0 mph 21.9 mph N/A   Clear
6:34 PM 44.6 °F 37.8 °F 31.1 °F 59% 29.48 in 10.0 mi SW 15.0 mph 21.9 mph N/A   Clear
6:54 PM 44.4 °F 37.9 °F 30.7 °F 59% 29.49 in 10.0 mi SW 13.8 mph 23.0 mph N/A   Clear
7:14 PM 44.6 °F 38.4 °F 30.2 °F 57% 29.50 in 10.0 mi SW 12.7 mph 20.7 mph N/A   Clear
7:34 PM 44.6 °F 38.4 °F 29.7 °F 56% 29.51 in 10.0 mi West 12.7 mph 19.6 mph N/A   Clear
7:54 PM 44.1 °F 37.4 °F 29.7 °F 57% 29.52 in 10.0 mi WSW 13.8 mph 20.7 mph N/A   Scattered Clouds
8:14 PM 43.3 °F 37.7 °F 29.8 °F 59% 29.53 in 10.0 mi WSW 10.4 mph 20.7 mph N/A   Mostly Cloudy
8:34 PM 43.2 °F 37.9 °F 29.8 °F 59% 29.54 in 10.0 mi WSW 9.2 mph 17.3 mph N/A   Overcast
8:54 PM 43.2 °F 37.0 °F 30.0 °F 60% 29.56 in 10.0 mi West 11.5 mph - N/A   Overcast
9:14 PM 42.8 °F 35.8 °F 29.8 °F 60% 29.57 in 10.0 mi West 13.8 mph 19.6 mph N/A   Overcast
9:34 PM 42.4 °F 35.7 °F 29.3 °F 60% 29.58 in 10.0 mi West 12.7 mph 20.7 mph N/A   Mostly Cloudy
9:54 PM 42.1 °F 34.9 °F 29.3 °F 61% 29.58 in 10.0 mi West 13.8 mph 24.2 mph N/A   Overcast
10:14 PM 41.5 °F 35.4 °F 29.3 °F 62% 29.59 in 10.0 mi West 10.4 mph 20.7 mph N/A   Overcast
10:33 PM 40.5 °F 33.6 °F 28.8 °F 63% 29.60 in 10.0 mi West 11.5 mph 26.5 mph N/A   Scattered Clouds
10:54 PM 40.3 °F 33.0 °F 29.1 °F 64% 29.61 in 10.0 mi West 12.7 mph 20.7 mph N/A   Mostly Cloudy
11:14 PM 39.9 °F 32.9 °F 29.3 °F 66% 29.62 in 10.0 mi West 11.5 mph 21.9 mph N/A   Overcast
11:34 PM 39.9 °F 32.5 °F 29.7 °F 67% 29.62 in 10.0 mi West 12.7 mph 19.6 mph N/A   Overcast
11:54 PM 39.4 °F 31.8 °F 30.0 °F 69% 29.64 in 10.0 mi West 12.7 mph 19.6 mph N/A   Overcast